Rbgn^[z[y[W
メイン
   新天体発見情報
     Comet C/2020 P4 (SOHO)
投稿するにはまず登録を

フラット表示 前のトピック | 次のトピック
投稿者 スレッド
佐藤裕久
投稿日時: 2020-8-31 22:45
モデレータ
登録日: 2005-6-12
居住地: 日本
投稿: 2505
オンライン
Comet C/2020 P4 (SOHO)

Karl Battams (海軍研究所: NRL, Washington)によると、Worachate Boonplodは8月5日UT、
SOHO/LASCO C3コロナグラフの画像から、まったく拡散し、V光度約8等のわずかに伸びたコマ
を見つけた。
また、この彗星はSTEREO/HI-1 カメラでも見えていた。

Battamsによる選択された近似の位置は次のとおり、

     2020 UT           R.A. (2000) Decl.       Mag.
     Aug.  5.812       9 33.0      +19 12       9.5
           6.304       9 26.7      +18 59       9.2
           6.804       9 19.7      +18 41       8.1
           7.304       9 12.3      +18 17
           7.758       9 05.5      +17 48       5.0

Michael Mattiazzo (Swan Hill, Victoria, オーストラリア)の報告によると、S. Johnston
(Melbourne)は、8月6.004日UT、SOHO/LASCO C3の画像に光度約7.5等のこの彗星をリアルタイム
に確認した。
Mattiazzoは、後にSWAN websiteの画像から約11等と見積もった。

彼によるの近似のSWAN位置は次のとおり、

     2020 UT           R.A. (2000) Decl.     Mag.
     July 27.5        10 25 40    +19 30      11
          28.5        10 22 00    +19 20
          29.5        10 16 18    +19 18
          30.5        10 12 34    +19 12
          31.5        10 06 27    +19 20
     Aug.  1.5        10 01 53    +19 18


中野主一氏による放物線軌道要素は次のとおり、

Orbit-1:
Include the first ofMattiazzo's SWAN positions, and are from 62 observations spanning 
July 27-Aug. 7 (mean residual 14".4).

     T = 2020 Aug.  8.2693 TT         Peri. = 180.5586
                                      Node  = 178.4510  2000.0
     q = 0.083628 AU                  Incl. =  26.1094

Orbit-2:
The brightest (presumed primary component, designated A in MPEC 2020-Q231) are from 
329 SOHO and STEREO observations (only) spanning Aug. 5-9 (mean residual 13".8), but
they show that the SWAN observations belong to this comet (with residuals of 0.2-0.9
 degree).

     T = 2020 Aug.  8.2180 TT         Peri. = 177.5448
                                      Node  = 175.2521  2000.0
     q = 0.090785 AU                  Incl. =  26.3369


Orbit-2による位置推算表は次のとおり(by Daniel W. E. Green)、

Date    TT    R. A. (2000) Decl.     Delta      r     Elong.  Phase  Mag.
2020 03 12    13 31.47   +02 16.4    2.109    3.007   149.4     9.7  19.4
2020 03 17    13 26.32   +03 17.3    2.004    2.938   155.2     8.2  19.2
2020 03 22    13 20.26   +04 24.2    1.908    2.867   160.7     6.6  19.0
2020 03 27    13 13.27   +05 36.6    1.820    2.796   165.2     5.2  18.8
2020 04 01    13 05.38   +06 53.5    1.741    2.724   167.2     4.7  18.6
2020 04 06    12 56.64   +08 13.9    1.671    2.651   165.3     5.5  18.4
2020 04 11    12 47.15   +09 36.1    1.611    2.577   160.4     7.5  18.2
2020 04 16    12 37.04   +10 58.4    1.561    2.502   154.2    10.1  18.1
2020 04 21    12 26.50   +12 18.9    1.520    2.426   147.2    13.0  17.9
2020 04 26    12 15.72   +13 35.6    1.488    2.349   140.0    16.0  17.7
2020 05 01    12 04.94   +14 46.6    1.464    2.271   132.7    19.0  17.5
2020 05 06    11 54.39   +15 50.8    1.447    2.191   125.4    22.0  17.4
2020 05 11    11 44.26   +16 47.1    1.436    2.110   118.2    25.0  17.2
2020 05 16    11 34.72   +17 35.2    1.429    2.027   111.2    27.7  17.0
2020 05 21    11 25.91   +18 15.0    1.426    1.943   104.3    30.3  16.9
2020 05 26    11 17.92   +18 46.9    1.426    1.857    97.7    32.7  16.7
2020 05 31    11 10.81   +19 11.4    1.425    1.769    91.4    35.0  16.5
2020 06 05    11 04.57   +19 29.4    1.424    1.678    85.2    37.0  16.3
2020 06 10    10 59.18   +19 41.6    1.421    1.586    79.3    39.0  16.1
2020 06 15    10 54.57   +19 48.9    1.416    1.491    73.6    40.8  15.8
2020 06 20    10 50.67   +19 52.1    1.406    1.393    68.0    42.6  15.5
2020 06 25    10 47.39   +19 52.0    1.391    1.291    62.6    44.4  15.2
2020 06 30    10 44.57   +19 49.3    1.369    1.186    57.4    46.2  14.8
2020 07 05    10 42.03   +19 44.8    1.341    1.076    52.2    48.2  14.4
2020 07 10    10 39.52   +19 39.5    1.304    0.961    47.0    50.6  13.9
2020 07 15    10 36.64   +19 34.2    1.257    0.840    41.7    53.7  13.3
2020 07 20    10 32.76   +19 30.2    1.198    0.710    36.2    57.8  12.6
2020 07 25    10 26.62   +19 28.9    1.127    0.569    30.2    64.0  11.6
2020 07 30    10 15.38   +19 31.3    1.040    0.412    23.1    75.0  10.1
2020 08 04    09 50.52   +19 27.5    0.943    0.231    12.9   101.4   7.6
2020 08 09    08 53.12   +15 59.3    0.985    0.101     5.5   103.6   4.5
2020 08 14    09 01.10   +11 08.0    1.245    0.290     8.9    32.7   9.1
2020 08 19    09 18.69   +08 34.4    1.429    0.463     9.6    21.4  11.3
2020 08 24    09 34.15   +06 43.1    1.581    0.614    10.4    17.3  12.6
2020 08 29    09 47.55   +05 13.0    1.714    0.751    11.4    15.5  13.6
2020 09 03    09 59.30   +03 56.0    1.833    0.878    12.8    14.7  14.3
2020 09 08    10 09.75   +02 47.8    1.941    0.998    14.5    14.6  14.9
2020 09 13    10 19.14   +01 46.3    2.038    1.111    16.5    14.9  15.5
2020 09 18    10 27.65   +00 49.9    2.127    1.219    18.8    15.4  15.9
2020 09 23    10 35.39   -00 02.4    2.207    1.323    21.3    16.0  16.3
2020 09 28    10 42.47   -00 51.2    2.279    1.423    24.0    16.7  16.7

  Mag. = 13.5 + 5 log(Delta) + 9.0 log(r)

(MPEC 2020-Q231、CBET 4841)

フラット表示 前のトピック | 次のトピック

題名 投稿者 日時
 » Comet C/2020 P4 (SOHO) 佐藤裕久 2020-8-31 22:45

投稿するにはまず登録を
 
© 1999 Tsutomu Seki.